CZ-2C DEB, 40290

Orbit data source: Space-Track

CZ-2C DEB, 40290 is space debris in SSO originally from a launch on Mon, 27 Oct 2014 UTC launched from the Jiuquan Satellite Launch Center, China (JSC). Debris objects in space refer to the collection of defunct objects orbiting the Earth. Examples of debris include non-operational satellites, rocket bodies, and fragments generated from explosions, collisions, or faulty payload assembly.

Loading next visibility...
CZ-2C DEB details
Identifier
40290, 2014-066E
Orbit
SSO
Last TLE update14 hours ago
Origin
Flag of CNCASC (CN / PRC)
ManufacturerCALT
MissionSpacecraft
Bus & MotorUnknown
Mass1 kg wet, 1 kg dry
Launch date (UTC)
2014-10-27 (10 years ago)
Launch vehicleUnknown
Launch site
Jiuquan Satellite Launch Center, China (JSC)
Object type
Payload
Rocket body
Debris
Shape & HBRCone, 0.2 m
Radar Cross Section0.025 m², Small (<0.1 m²)

Expand to show TLE details & history

TLE from 14 hours ago
0 CZ-2C DEB
1 40290U 14066E   24361.39426397  .00018783  00000-0  25918-2 0  9995
2 40290  97.8921 328.2538 0064012 156.8003 203.6120 14.76769219539979
Epoch: 2024-12-26T09:27Z
Definitive object data (Epoch: 2024-12-26T09:27:44.407Z)
Latitude0.00003°
Longitude90.94448°
Altitude683.774 km
Speed7.493 km/s
True Right ascension21h 53m 00s
True Declination0° 00' 00"
Sunlit
Object was in daylight at TLE epoch
Visualization TLE readout
Latitude-70.22813°
Longitude-111.03314°
Altitude670.673 km
Speed7.518 km/s
Apparent Right ascension10h 09m 48s
Apparent Declination-57° 01' 38"
Sunlit
Object is in daylight
Visualization observer readout
Local Sidereal Time22:59:31
Azimuth158.822° S
Elevation-71.076°
Doppler factor1
Orbital elements
Apogee altitude681.488 km
Perigee altitude591.683 km
Semi-major axis7,014.722 km
Eccentricity0.0064012
Inclination97.8921°
RAAN328.2538°
Arg. of periapsis156.8003°
True anomaly203.32033°
Mean anomaly203.612°
Eccentric anomaly203.46595°
Mean motion3.69426 °/min
BSTAR0.0025918
Orbital period97.45 mins
Loading maneuver chart data...
Loading historical data...
Loading historical data...
Loading historical data...
Loading historical data...
Loading historical data...
Loading historical data...
Loading historical data...
Other satellites on launch #66 in the year 2014 (2014-10-27 UTC)

CZ-2C DEB Visibility forecast

Observer location: undefined°, undefined

Span
Click to sort rows by Start time (UTC) header in descending order
Start Az.
Max El. time (UTC)
Max El. Az.
Max El.
End time (UTC)
End Az.
7 mins2024-12-27 10:26:11.054Z32.908° NE2024-12-27 10:29:11.054Z93.184° ESE32.593°2024-12-27 10:33:11.054Z168.658° S
6 mins2024-12-27 21:23:11.054Z123.493° SE2024-12-27 21:26:11.054Z60.11° ENE28.519°2024-12-27 21:29:11.054Z10.942° NNE
5 mins2024-12-27 23:00:11.054Z228.78° WSW2024-12-27 23:02:11.054Z262.418° W20.355°2024-12-27 23:05:11.054Z310.493° NW
|